{"data":{"norad_id":68231,"intl_designator":"2026-053AA","name":"STARLINK-37104","alt_names":[],"object_type":"PAYLOAD","status":"ACTIVE","operator":null,"country":"US","launch_date":"2026-03-17","launch_site_code":"AFWTR","launch_vehicle":null,"mission":null,"orbit_class":"UNKNOWN","rcs_meters":null,"size_class":null,"mass_kg":null,"dimensions":null,"purposes":["comms"],"wikipedia_slug":null,"has_3d_model":false,"image_url":null,"decayed_at":null,"tle_current":{"epoch":"2026-05-25T02:23:58.174368Z","epoch_age_seconds":60312,"freshness":"FRESH","line1":"1 68231U 26053AA  26145.09997887  .00028432  00000+0  87907-3 0  9993","line2":"2 68231  97.2853  20.6340 0001328  97.2245 262.9149 15.33467748 11939","mean_motion":15.33467748,"eccentricity":0.0001328,"inclination_deg":97.2853,"raan_deg":20.634,"arg_perigee_deg":97.2245,"mean_anomaly_deg":262.9149,"bstar":0.00087907,"rev_number":1193,"period_min":93.904811619162,"perigee_km":464.56666153229,"apogee_km":466.3843250105,"semimajor_km":6843.6124932714,"source":"CELESTRAK","updated_at":"2026-05-25T13:38:21.882547Z"}}}